User: anonymous
Location: M.A.R.S.Observatory
(35.4031°N, 81.5481°W)
Time: 07:41:33
(UTC-04:00)
Language:

SL-8 R/B - Orbit

View from above orbital plane
View from above orbital plane
View from above satellite
View from above satellite

Ground track
Ground track

The orbit data is extracted from the following two-line orbital elements,

1 33066U 08031G   14260.08953574  .00000321  00000-0  87396-4 0  8828
2 33066 048.4424 125.4318 0008072 196.3712 323.9849 14.68870538335106
Epoch (UTC): 17 September 2014 02:08:55
Eccentricity: 0.0008072
inclination: 48.4424°
perigee height: 659 km
apogee height: 670 km
right ascension of ascending node: 125.4318°
argument of perigee: 196.3712°
revolutions per day: 14.68870538
mean anomaly at epoch: 323.9849°
orbit number at epoch: 33510

The dashed part of the orbit path shows where the satellite is in the earth's shadow,  

DLR